Ketchikan, AK

9:36 AM AKDT on October 19, 2018 (GMT -0800)
Ketchikan International

Weather History for PAKT - April, 2018

Change the Weather History Date:

Friday, April 20, 2018

  Actual Average Record
Temperature  
Mean Temperature 40 °F -  
Max Temperature 42 °F 49 °F 61 °F (1956)
Min Temperature 37 °F 37 °F 28 °F (2002)
Degree Days  
Heating Degree Days 26    
Moisture  
Dew Point 38 °F    
Average Humidity 92    
Maximum Humidity 100    
Minimum Humidity 85    
Precipitation  
Precipitation 0.70 in - - ()
Sea Level Pressure  
Sea Level Pressure 29.85 in    
Wind  
Wind Speed 4 mph (SSE)    
Max Wind Speed 16 mph    
Max Gust Speed 23 mph    
Visibility 7 miles    
Events Rain    
Averages and records for this station are not official NWS values.
T = Trace of Precipitation, MM = Missing Value Source: NWS Daily Summary

Daily Weather History Graph

Daily Weather History Graph

Search for Another Location

Airport or City:

Astronomy

Apr. 20, 2018 Rise Set
Actual Time 5:30 AM AKDT 8:02 PM AKDT
Civil Twilight 4:49 AM AKDT 8:43 PM AKDT
Nautical Twilight 3:57 AM AKDT 9:36 PM AKDT
Astronomical Twilight 2:52 AM AKDT 10:42 PM AKDT
Moon 8:51 AM AKDT (4/20) 12:43 AM AKDT (4/20)
Length of Visible Light 15h 53m
Length of Day
14h 32m
Waxing Crescent, 27% of the Moon is Illuminated
Apr 20
Waxing Crescent
Apr 22
First Quarter
Apr 29
Full
May 7
Last Quarter
May 15
New

Hourly Weather History & Observations

Time (AKDT) Temp. Windchill Dew Point Humidity Pressure Visibility Wind Dir Wind Speed Gust Speed Precip Events Conditions
12:34 AM 39.9 °F 36.7 °F 37.9 °F 93% 29.94 in 10.0 mi South 4.6 mph - N/A   Mostly Cloudy
12:53 AM 39.9 °F 37.8 °F 37.9 °F 93% 29.95 in 10.0 mi South 3.5 mph - N/A   Overcast
1:53 AM 39.0 °F - 37.9 °F 96% 29.95 in 10.0 mi Calm Calm - N/A   Overcast
2:53 AM 39.9 °F 37.8 °F 37.9 °F 93% 29.95 in 10.0 mi South 3.5 mph - N/A   Overcast
3:53 AM 39.0 °F - 37.9 °F 96% 29.94 in 10.0 mi Calm Calm - N/A   Mostly Cloudy
4:01 AM 39.0 °F - 37.9 °F 96% 29.93 in 10.0 mi Calm Calm - N/A   Mostly Cloudy
4:53 AM 39.0 °F - 37.9 °F 96% 29.93 in 10.0 mi Calm Calm - N/A   Overcast
5:53 AM 37.9 °F - 37.0 °F 97% 29.92 in 10.0 mi Calm Calm - N/A   Mostly Cloudy
5:59 AM 37.4 °F - 37.4 °F 100% 29.92 in 10.0 mi Calm Calm - N/A   Overcast
6:53 AM 39.0 °F - 37.9 °F 96% 29.92 in 10.0 mi Calm Calm - N/A   Overcast
7:53 AM 39.9 °F - 39.0 °F 97% 29.91 in 10.0 mi Calm Calm - N/A   Overcast
8:53 AM 42.1 °F 40.2 °F 37.9 °F 85% 29.90 in 10.0 mi SSE 3.5 mph - 0.00 in Rain Light Rain
9:53 AM 42.1 °F 38.4 °F 39.0 °F 89% 29.88 in 6.0 mi South 5.8 mph - 0.02 in Rain Light Rain
10:53 AM 42.1 °F 40.2 °F 39.0 °F 89% 29.87 in 7.0 mi Variable 3.5 mph - 0.03 in Rain Light Rain
11:53 AM 41.0 °F 36.4 °F 37.4 °F 87% 29.86 in 10.0 mi South 6.9 mph - N/A Rain Light Rain
12:53 PM 39.9 °F 35.1 °F 37.0 °F 89% 29.84 in 5.0 mi South 6.9 mph - 0.07 in Rain Light Rain
1:53 PM 39.2 °F 33.0 °F 37.4 °F 93% 29.81 in 4.0 mi South 9.2 mph - N/A Rain Light Rain
2:53 PM 39.2 °F 33.6 °F 37.4 °F 93% 29.79 in 4.0 mi South 8.1 mph - N/A Rain Light Rain
3:53 PM 39.0 °F 30.3 °F 36.0 °F 89% 29.78 in 3.0 mi SSE 16.1 mph 23.0 mph 0.18 in Rain Rain
4:53 PM 39.2 °F 32.5 °F 37.4 °F 93% 29.77 in 4.0 mi SSE 10.4 mph 18.4 mph N/A Rain Light Rain
5:53 PM 42.8 °F 36.6 °F 39.2 °F 87% 29.76 in 4.0 mi SSE 11.5 mph - N/A Rain Rain
6:53 PM 42.8 °F 37.0 °F 39.2 °F 87% 29.75 in 3.0 mi SSE 10.4 mph - N/A Rain Rain
7:53 PM 42.1 °F 36.1 °F 39.9 °F 92% 29.75 in 4.0 mi SE 10.4 mph - 0.13 in Rain Light Rain
8:53 PM 41.0 °F 36.4 °F 39.0 °F 93% 29.76 in 5.0 mi SSE 6.9 mph - 0.12 in Rain Rain
9:08 PM 41.0 °F 37.1 °F 39.0 °F 93% 29.75 in 5.0 mi SSE 5.8 mph - 0.03 in Rain Light Rain
9:53 PM 41.0 °F - 37.9 °F 89% 29.75 in 7.0 mi Calm Calm - 0.07 in Rain Light Rain
10:53 PM 39.9 °F 36.7 °F 37.9 °F 93% 29.75 in 9.0 mi NNW 4.6 mph - 0.04 in Rain Light Rain
11:53 PM 39.0 °F 35.7 °F 37.0 °F 93% 29.76 in 8.0 mi WNW 4.6 mph - 0.04 in Rain Light Rain